Weather History for Westfield, MA

Change the Weather History Date:

Wednesday, December 5, 2012

  Actual Average Record
Temperature  
Mean Temperature 44 °F -  
Max Temperature 55 °F 40 °F 68 °F (2001)
Min Temperature 30 °F 23 °F 12 °F (2005)
Degree Days  
Heating Degree Days 21    
Moisture  
Dew Point 35 °F    
Average Humidity 65    
Maximum Humidity 94    
Minimum Humidity 42    
Precipitation  
Precipitation 0.03 in - - ()
Sea Level Pressure  
Sea Level Pressure 29.99 in    
Wind  
Wind Speed 12 mph (WNW)    
Max Wind Speed 21 mph    
Max Gust Speed 31 mph    
Visibility 9 miles    
Events Rain    
Averages and records for this station are not official NWS values.
T = Trace of Precipitation, MM = Missing Value Source: NWS Daily Summary

Daily Weather History Graph

Daily Weather History Graph

Search for Another Location

Airport:

Trip Planner

Search our weather history database for the weather conditions in past years. The results will help you decide how hot, cold, wet, or windy it might be!

Date:

Astronomy

Dec. 05, 2012 Rise Set
Actual Time 7:04 AM EST 4:18 PM EST
Civil Twilight 6:32 AM EST 4:50 PM EST
Nautical Twilight 5:57 AM EST 5:25 PM EST
Astronomical Twilight 5:23 AM EST 5:59 PM EST
Moon 11:11 PM EST (12/5) 11:21 AM EST (12/5)
Length of Visible Light 10h 17m
Length of Day
9h 14m
Waning Gibbous, 60% of the Moon is Illuminated
Dec 5
Waning Gibbous
Dec 6
Last Quarter
Dec 13
New
Dec 20
First Quarter
Dec 28
Full

Hourly Weather History & Observations

Time (EST) Temp. Windchill Dew Point Humidity Pressure Visibility Wind Dir Wind Speed Gust Speed Precip Events Conditions
12:53 AM 55.0 °F - 51.1 °F 86% 29.92 in 6.0 mi South 11.5 mph - N/A   Overcast
1:53 AM 55.0 °F - 51.1 °F 86% 29.91 in 7.0 mi South 11.5 mph - 0.00 in Rain Light Rain
2:10 AM 55.4 °F - 51.8 °F 88% 29.87 in 6.0 mi South 13.8 mph - 0.00 in Rain Light Rain
2:25 AM 55.4 °F - 51.8 °F 88% 29.87 in 6.0 mi South 11.5 mph - 0.00 in Rain Light Rain
2:36 AM 53.6 °F - 51.8 °F 94% 29.86 in 5.0 mi South 9.2 mph - 0.00 in Rain Light Rain
2:53 AM 54.0 °F - 51.1 °F 90% 29.87 in 5.0 mi South 9.2 mph - 0.01 in Rain Light Rain
3:10 AM 53.6 °F - 51.8 °F 94% 29.87 in 5.0 mi SSW 9.2 mph - 0.00 in Rain Light Rain
3:27 AM 53.6 °F - 50.0 °F 88% 29.87 in 4.0 mi SW 6.9 mph - 0.01 in Rain Light Rain
3:46 AM 53.6 °F - 48.2 °F 82% 29.89 in 10.0 mi WNW 11.5 mph - 0.02 in   Overcast
3:53 AM 53.1 °F - 46.0 °F 77% 29.91 in 10.0 mi WNW 13.8 mph 20.7 mph 0.02 in   Overcast
4:53 AM 52.0 °F - 44.1 °F 74% 29.91 in 10.0 mi WNW 9.2 mph - N/A   Overcast
5:53 AM 51.1 °F - 43.0 °F 74% 29.92 in 10.0 mi NW 6.9 mph - 0.00 in   Overcast
6:53 AM 50.0 °F - 41.0 °F 71% 29.94 in 10.0 mi NW 6.9 mph - N/A   Overcast
7:53 AM 50.0 °F - 37.9 °F 63% 29.97 in 10.0 mi NW 10.4 mph 21.9 mph N/A   Partly Cloudy
9:53 AM 52.0 °F - 35.1 °F 53% 29.97 in 10.0 mi NW 12.7 mph 24.2 mph N/A   Clear
10:53 AM 53.1 °F - 33.1 °F 47% 29.97 in 10.0 mi NW 19.6 mph 28.8 mph N/A   Scattered Clouds
11:53 AM 51.1 °F - 32.0 °F 48% 29.97 in 10.0 mi WNW 12.7 mph - N/A   Mostly Cloudy
12:53 PM 48.9 °F - 32.0 °F 52% 29.98 in 10.0 mi NW 20.7 mph 27.6 mph N/A   Mostly Cloudy
1:53 PM 46.9 °F - 28.9 °F 50% 29.99 in 10.0 mi NNW 17.3 mph 28.8 mph N/A   Partly Cloudy
2:53 PM 45.0 °F 36.9 °F 27.0 °F 49% 30.02 in 10.0 mi NW 20.7 mph 29.9 mph N/A   Scattered Clouds
3:53 PM 42.1 °F 35.7 °F 23.0 °F 47% 30.06 in 10.0 mi NW 11.5 mph 27.6 mph N/A   Overcast
4:53 PM 39.9 °F 31.1 °F 21.9 °F 49% 30.08 in 10.0 mi NW 17.3 mph 28.8 mph N/A   Mostly Cloudy
5:53 PM 37.9 °F 28.9 °F 21.0 °F 51% 30.10 in 10.0 mi NW 16.1 mph 31.1 mph N/A   Clear
6:53 PM 37.9 °F 28.5 °F 21.9 °F 53% 30.11 in 10.0 mi WNW 17.3 mph - N/A   Mostly Cloudy
7:53 PM 37.0 °F 27.7 °F 16.0 °F 42% 30.13 in 10.0 mi NW 16.1 mph 27.6 mph N/A   Mostly Cloudy
8:53 PM 37.0 °F 28.5 °F 16.0 °F 42% 30.14 in 10.0 mi NW 13.8 mph - N/A   Overcast
9:53 PM 36.0 °F 29.0 °F 16.0 °F 44% 30.16 in 10.0 mi NNW 9.2 mph - N/A   Overcast
10:53 PM 33.1 °F 23.4 °F 14.0 °F 46% 30.19 in 10.0 mi NNW 13.8 mph - N/A   Mostly Cloudy
11:53 PM 30.9 °F 24.3 °F 12.0 °F 46% 30.20 in 10.0 mi North 6.9 mph - N/A   Clear